Terminal Aerodrome Forecast
Issued by NWS Nashville, TN

Home | Current Version | Previous Version | Text Only | Print | Product List | Glossary On
Versions: 1 2 3 4 5 6 7 8 9 10 11 12 13 14 15
000
FTUS44 KOHX 281331 AAA
TAFBNA
TAF AMD
KBNA 281331Z 2814/0112 17010KT P6SM VCTS BKN015CB OVC100
     FM281500 18011G18KT 4SM -TSRA SCT007 OVC012CB
     FM281900 19013G23KT P6SM VCSH OVC015
     FM282300 19015G25KT P6SM BKN025
     FM010900 20015G25KT 3SM TSRA OVC015CB=

USA.gov is the U.S. government's official web portal to all federal, state and local government web resources and services.